Location: Maccacari
(45.1333°N, 11.1333°E)
Time: 02:52:31
(UTC+00:00)

Vanguard 2 - Pass Details

Date: 27 January 2021
Orbit: 552 x 2938 km, 32.9° (Epoch: 05 March)

Event Time Altitude Azimuth Distance (km) Brightness Sun altitude
Rises 17:35:27 0° 247° (WSW) 2,727 12.1 -14.1°
Reaches altitude 10° 17:38:16 10° 223° (SW) 1,920 10.4 -14.5°
Maximum altitude 17:40:52 16° 185° (S) 1,714 9.5 -15.0°
Drops below altitude 10° 17:43:53 10° 148° (SSE) 2,289 9.8 -15.5°
Enters shadow 17:45:53 - 135° (SE) 2,926 10.2 -15.9°
Sets 17:47:46 0° 128° (SE) 3,591 - -16.2°
